NR0A-4 Weather Reports


time (UTC)temp
F
wind
direction
speed
knots
gust
knots
rain 1hr
in
rain 24hr
in
rain mn
in
humidity
%
barometer
mb
20180720182537 79 17 1.7 2.6 0.00 0.00 0.00 56 1015.8
20180720182037 79 308 0.0 0.0 0.00 0.00 0.00 58 1015.8
20180720181537 79 286 0.9 0.9 0.00 0.00 0.00 58 1015.8
20180720181037 79 147 0.0 0.0 0.00 0.00 0.00 58 1015.7
20180720180536 79 309 0.0 0.0 0.00 0.00 0.00 58 1015.8
20180720180036 78 309 0.0 0.0 0.00 0.00 0.00 60 1015.7
20180720175536 78 309 0.0 0.0 0.00 0.00 0.00 58 1015.6
20180720175041 79 170 0.0 2.6 0.00 0.00 0.00 57 1015.6
20180720174541 79 199 1.7 4.3 0.00 0.00 0.00 56 1015.5
20180720174040 79 259 1.7 1.7 0.00 0.00 0.00 57 1015.6
20180720173540 78 89 0.0 0.9 0.00 0.00 0.00 60 1015.5
20180720173040 78 206 1.7 1.7 0.00 0.00 0.00 58 1015.4
20180720172540 78 202 0.0 0.9 0.00 0.00 0.00 58 1015.5
20180720172040 77 191 0.9 2.6 0.00 0.00 0.00 59 1015.4
20180720171540 77 319 1.7 1.7 0.00 0.00 0.00 60 1015.2
20180720171040 77 19 2.6 5.2 0.00 0.00 0.00 59 1015.2
20180720170539 77 22 1.7 2.6 0.00 0.00 0.00 58 1015.2
20180720170039 78 58 0.0 0.0 0.00 0.00 0.00 60 1015.2
20180720165539 78 37 0.9 1.7 0.00 0.00 0.00 61 1015.2
20180720165039 77 257 0.0 0.0 0.00 0.00 0.00 60 1015.2
20180720164539 76 290 0.9 0.9 0.00 0.00 0.00 61 1015.1
20180720164039 76 253 0.9 2.6 0.00 0.00 0.00 61 1014.8
20180720163539 76 58 2.6 4.3 0.00 0.00 0.00 61 1014.7
20180720163039 76 21 4.3 7.0 0.00 0.00 0.00 60 1014.7
20180720162539 77 99 0.9 4.3 0.00 0.00 0.00 60 1014.7
20180720162039 77 119 0.9 5.2 0.00 0.00 0.00 62 1014.5
20180720161539 77 35 2.6 4.3 0.00 0.00 0.00 61 1014.4
20180720161039 76 2 0.9 4.3 0.00 0.00 0.00 62 1014.4
20180720160539 75 294 0.9 1.7 0.00 0.00 0.00 64 1014.3
20180720160039 75 24 0.9 4.3 0.00 0.00 0.00 64 1014.3
20180720155539 75 25 1.7 4.3 0.00 0.00 0.00 65 1014.1
20180720155038 74 120 0.9 0.9 0.00 0.00 0.00 66 1013.9
20180720154538 74 346 2.6 6.1 0.00 0.00 0.00 66 1013.9
20180720154038 73 6 2.6 7.0 0.00 0.00 0.00 67 1013.8
20180720153538 73 336 2.6 6.1 0.00 0.00 0.00 68 1013.8
20180720153038 73 14 5.2 10.4 0.00 0.00 0.00 67 1013.8
20180720152538 73 23 2.6 5.2 0.00 0.00 0.00 69 1013.9
20180720152038 73 15 4.3 7.8 0.00 0.00 0.00 68 1013.9
20180720151537 72 10 1.7 2.6 0.00 0.00 0.00 70 1014.0
20180720151037 72 356 1.7 7.8 0.00 0.00 0.00 71 1014.2
20180720150537 72 22 4.3 5.2 0.00 0.00 0.00 72 1014.3
20180720150037 72 18 2.6 4.3 0.00 0.00 0.00 73 1014.4
20180720145537 72 240 1.7 4.3 0.00 0.00 0.00 73 1014.4
20180720145037 71 352 1.7 4.3 0.00 0.00 0.00 73 1014.5
20180720144537 71 22 0.9 1.7 0.00 0.00 0.00 73 1014.6
20180720144037 71 349 0.9 2.6 0.00 0.00 0.00 72 1014.6
20180720143538 72 348 1.7 7.8 0.00 0.00 0.00 70 1014.6
20180720143037 71 310 0.9 4.3 0.00 0.00 0.00 73 1014.6
20180720142536 71 307 0.9 1.7 0.00 0.00 0.00 72 1014.6
20180720142036 70 318 1.7 1.7 0.00 0.00 0.00 74 1014.6
20180720141536 70 76 0.0 0.0 0.00 0.00 0.00 75 1014.6
20180720141040 70 282 1.7 4.3 0.00 0.00 0.00 74 1014.6
20180720140540 69 41 1.7 2.6 0.00 0.00 0.00 75 1014.6
20180720140040 70 335 0.0 0.0 0.00 0.00 0.00 75 1014.6
20180720135540 69 305 2.6 2.6 0.00 0.00 0.00 74 1014.6
20180720135040 69 344 0.9 4.3 0.00 0.00 0.00 76 1014.6
20180720134540 69 3 1.7 2.6 0.00 0.00 0.00 75 1014.5
20180720134040 69 303 0.0 4.3 0.00 0.00 0.00 77 1014.5
20180720133540 68 1 0.0 1.7 0.00 0.00 0.00 78 1014.3
20180720133040 68 174 0.9 1.7 0.00 0.00 0.00 80 1014.3
20180720132540 67 253 0.9 1.7 0.00 0.00 0.00 79 1014.1
20180720132040 67 349 0.9 6.1 0.00 0.00 0.00 80 1014.2
20180720131540 67 325 0.9 5.2 0.00 0.00 0.00 80 1014.3
20180720131040 66 324 0.9 1.7 0.00 0.00 0.00 81 1014.2
20180720130538 66 198 0.0 0.0 0.00 0.00 0.00 82 1014.2
20180720130038 65 322 0.9 1.7 0.00 0.00 0.00 82 1014.1
20180720125538 65 262 0.9 0.9 0.00 0.00 0.00 83 1014.0
20180720125038 65 298 0.9 0.9 0.00 0.00 0.00 84 1014.0
20180720124538 64 358 0.0 0.9 0.00 0.00 0.00 84 1014.0
20180720124038 64 281 2.6 6.1 0.00 0.00 0.00 84 1014.0
20180720123538 63 326 0.9 0.9 0.00 0.00 0.00 86 1013.9
20180720123039 63 282 0.0 0.0 0.00 0.00 0.00 86 1013.9
20180720122538 62 216 0.0 0.9 0.00 0.00 0.00 87 1013.9
20180720122038 62 213 0.0 0.0 0.00 0.00 0.00 87 1013.9
20180720121538 62 215 0.9 1.7 0.00 0.00 0.00 87 1013.7
20180720121038 62 288 0.0 0.0 0.00 0.00 0.00 87 1013.7
20180720120538 62 247 0.0 0.0 0.00 0.00 0.00 88 1013.6
20180720120038 61 24 0.0 0.0 0.00 0.00 0.00 88 1013.6
20180720115538 61 241 0.0 0.0 0.00 0.00 0.00 88 1013.7
20180720115038 61 328 0.9 1.7 0.00 0.00 0.00 88 1013.7
20180720114538 61 335 0.0 0.0 0.00 0.00 0.00 88 1013.7
20180720114038 61 330 0.9 2.6 0.00 0.00 0.00 88 1013.8
20180720113538 61 233 0.0 0.0 0.00 0.00 0.00 88 1014.0
20180720113038 61 233 0.0 0.0 0.00 0.00 0.00 88 1014.0
20180720112538 61 233 0.0 0.0 0.00 0.00 0.00 88 1013.8
20180720112038 61 233 0.0 0.0 0.00 0.00 0.00 88 1013.7
20180720111538 61 233 0.0 0.0 0.00 0.00 0.00 88 1013.5
20180720111038 61 233 0.0 0.0 0.00 0.00 0.00 87 1013.4
20180720110538 61 233 0.0 0.0 0.00 0.00 0.00 87 1013.5
20180720110038 61 233 0.0 0.0 0.00 0.00 0.00 87 1013.4
20180720105538 61 233 0.0 0.0 0.00 0.00 0.00 87 1013.4
20180720105038 61 233 0.0 0.0 0.00 0.00 0.00 88 1013.3
20180720104538 61 210 0.0 0.0 0.00 0.00 0.00 88 1013.3
20180720104038 61 210 0.0 0.0 0.00 0.00 0.00 89 1013.1
20180720103537 61 210 0.0 0.0 0.00 0.00 0.00 89 1013.1
20180720103038 61 210 0.0 0.0 0.00 0.00 0.00 89 1013.3
20180720102537 61 210 0.0 0.0 0.00 0.00 0.00 88 1013.1
20180720102037 61 210 0.0 0.0 0.00 0.00 0.00 88 1013.1
20180720101537 61 193 0.0 0.9 0.00 0.00 0.00 89 1013.1
20180720101037 61 193 0.0 0.0 0.00 0.00 0.00 89 1013.0
20180720100537 61 193 0.0 0.0 0.00 0.00 0.00 89 1013.1
20180720100037 62 193 0.0 0.0 0.00 0.00 0.00 89 1013.1
20180720095537 62 193 0.0 0.0 0.00 0.00 0.00 89 1013.1
20180720095037 62 193 0.0 0.0 0.00 0.00 0.00 89 1013.3
20180720094538 62 301 0.0 0.9 0.00 0.00 0.00 90 1013.1
20180720094036 62 256 0.0 0.0 0.00 0.00 0.00 90 1013.0
20180720093536 61 256 0.0 0.0 0.00 0.00 0.00 91 1013.0
20180720093036 61 256 0.0 0.0 0.00 0.00 0.00 92 1013.0
20180720092536 61 256 0.0 0.0 0.00 0.00 0.00 94 1013.1
20180720092036 61 296 0.0 0.9 0.00 0.00 0.00 94 1013.1
20180720091536 61 341 0.9 0.9 0.00 0.00 0.00 94 1013.1
20180720091036 61 205 0.9 1.7 0.00 0.00 0.00 94 1013.1
20180720090541 60 223 1.7 2.6 0.00 0.00 0.00 94 1013.1
20180720090041 60 232 0.0 0.0 0.00 0.00 0.00 94 1013.3
20180720085541 60 223 2.6 4.3 0.00 0.00 0.00 94 1013.3
20180720085041 61 239 0.0 0.9 0.00 0.00 0.00 94 1013.1
20180720084541 61 228 1.7 2.6 0.00 0.00 0.00 94 1013.1
20180720084041 61 238 1.7 2.6 0.00 0.00 0.00 94 1013.0
20180720083541 61 227 0.9 0.9 0.00 0.00 0.00 93 1013.0
20180720083041 61 237 1.7 1.7 0.00 0.00 0.00 93 1013.0
20180720082542 61 231 1.7 4.3 0.00 0.00 0.00 93 1013.0
20180720082041 61 192 0.0 0.0 0.00 0.00 0.00 92 1013.0
20180720081541 61 180 0.0 0.9 0.00 0.00 0.00 92 1013.0
20180720081041 61 247 1.7 1.7 0.00 0.00 0.00 92 1013.0
20180720080541 61 228 1.7 1.7 0.00 0.00 0.00 92 1012.9
20180720080041 61 228 1.7 1.7 0.00 0.00 0.00 91 1012.9
20180720075540 61 218 0.9 1.7 0.00 0.00 0.00 91 1012.8
20180720075040 61 203 0.0 0.9 0.00 0.00 0.00 91 1013.0
20180720074540 62 220 0.9 1.7 0.00 0.00 0.00 90 1013.0
20180720074040 62 233 0.0 0.0 0.00 0.00 0.00 90 1012.9
20180720073539 62 226 0.0 0.0 0.00 0.00 0.00 90 1012.9
20180720073039 62 162 0.9 0.0 0.00 0.00 0.00 89 1012.8
20180720072539 62 184 0.9 0.9 0.00 0.00 0.00 88 1012.9
20180720072039 62 164 0.0 0.0 0.00 0.00 0.00 88 1012.9
20180720071539 63 164 0.0 0.0 0.00 0.00 0.00 87 1012.9
20180720071039 63 164 0.0 0.0 0.00 0.00 0.00 86 1012.9
20180720070539 63 164 0.0 0.0 0.00 0.00 0.00 86 1013.0
20180720070039 64 164 0.0 0.0 0.00 0.00 0.00 85 1013.0
20180720065540 64 164 0.0 0.0 0.00 0.00 0.00 83 1012.9
20180720065040 65 198 0.9 0.9 0.00 0.00 0.00 81 1012.9
20180720064538 65 203 0.0 0.9 0.00 0.00 0.00 80 1012.9
20180720064038 65 205 0.0 0.0 0.00 0.00 0.00 80 1012.8
20180720063543 65 205 0.0 0.0 0.00 0.00 0.00 80 1012.8
20180720063038 65 205 0.0 0.0 0.00 0.00 0.00 80 1012.9
20180720062538 65 356 0.9 0.9 0.00 0.00 0.00 80 1012.9
20180720062038 65 298 0.0 0.0 0.00 0.00 0.00 81 1012.9
20180720061537 64 358 0.0 0.9 0.00 0.00 0.00 82 1012.9
20180720061037 64 212 0.0 0.0 0.00 0.00 0.00 83 1012.8
20180720060541 64 212 0.0 0.0 0.00 0.00 0.00 84 1012.9
20180720060041 64 212 0.0 0.0 0.00 0.00 0.00 84 1012.9
20180720055541 64 212 0.0 0.0 0.00 0.01 0.00 84 1012.9
20180720055040 64 212 0.0 0.0 0.00 0.03 0.00 83 1013.0
20180720054540 64 212 0.0 0.0 0.00 0.07 0.00 83 1013.0
20180720054040 65 212 0.0 0.0 0.00 0.09 0.00 82 1012.9
20180720053540 65 221 0.9 1.7 0.00 0.10 0.00 81 1012.8
20180720053040 65 202 0.0 0.0 0.00 0.10 0.00 80 1012.8
20180720052540 66 202 0.0 0.0 0.00 0.12 0.00 79 1012.7
20180720052039 66 167 0.0 0.9 0.00 0.13 0.00 78 1012.7
20180720051543 66 154 0.0 0.0 0.00 0.16 0.00 77 1012.7
20180720051039 67 154 0.0 0.0 0.00 0.17 0.00 76 1012.6
20180720050538 67 186 0.0 0.9 0.00 0.17 0.00 75 1012.6
20180720050038 67 127 0.0 1.7 0.00 0.17 0.00 74 1012.6
20180720045538 68 114 0.0 0.0 0.00 0.17 0.17 74 1012.5
20180720045037 68 114 0.0 0.0 0.00 0.17 0.17 73 1012.5
20180720044541 68 114 0.0 0.0 0.00 0.17 0.17 72 1012.4
20180720044041 68 114 0.0 0.0 0.00 0.17 0.17 72 1012.4
20180720043541 68 240 0.0 0.0 0.00 0.17 0.17 71 1012.4
20180720043041 68 240 0.0 0.0 0.00 0.17 0.17 71 1012.4
20180720042541 68 240 0.0 0.0 0.00 0.17 0.17 70 1012.4
20180720042041 68 240 0.0 0.0 0.00 0.17 0.17 70 1012.4
20180720041541 69 240 0.0 0.0 0.00 0.17 0.17 70 1012.3
20180720041041 69 240 0.0 0.0 0.00 0.17 0.17 69 1012.2
20180720040541 69 240 0.0 0.0 0.00 0.17 0.17 69 1012.1
20180720040041 69 283 0.0 0.0 0.00 0.17 0.17 69 1012.0
20180720035541 69 287 0.0 0.0 0.00 0.17 0.17 70 1012.0
20180720035041 69 287 0.0 0.0 0.00 0.17 0.17 70 1012.0
20180720034541 69 206 0.0 0.0 0.00 0.17 0.17 70 1011.9
20180720034041 69 332 0.0 0.9 0.00 0.17 0.17 70 1011.9
20180720033541 69 343 0.0 0.0 0.00 0.17 0.17 70 1011.9
20180720033041 69 343 0.0 0.0 0.00 0.17 0.17 71 1011.9
20180720032541 70 186 0.0 0.0 0.00 0.17 0.17 72 1011.8
20180720032040 70 186 0.0 0.0 0.00 0.17 0.17 71 1011.8
20180720031540 70 186 0.0 0.0 0.00 0.17 0.17 70 1011.8
20180720031041 70 186 0.0 0.0 0.00 0.17 0.17 69 1011.7
20180720030540 70 186 0.0 0.0 0.00 0.17 0.17 68 1011.7
20180720030040 71 186 0.0 0.0 0.00 0.17 0.17 68 1011.6
20180720025540 71 186 0.0 0.0 0.00 0.17 0.17 67 1011.6
20180720025040 71 186 0.0 0.0 0.00 0.17 0.17 66 1011.6
20180720024540 71 186 0.0 0.0 0.00 0.17 0.17 65 1011.5
20180720024040 71 186 0.0 0.0 0.00 0.17 0.17 64 1011.3
20180720023540 72 194 0.0 0.9 0.00 0.17 0.17 63 1011.3
20180720023040 72 230 0.0 0.0 0.00 0.17 0.17 63 1011.2
20180720022539 72 230 0.0 0.0 0.00 0.17 0.17 63 1011.2
20180720022039 73 230 0.0 0.0 0.00 0.17 0.17 62 1011.2
20180720021537 73 227 0.0 0.9 0.00 0.17 0.17 62 1011.1
20180720021037 73 234 0.0 0.9 0.00 0.17 0.17 62 1011.1
20180720020537 74 234 0.0 0.9 0.00 0.17 0.17 61 1011.1
20180720020037 74 176 0.0 0.0 0.00 0.17 0.17 62 1011.1
20180720015541 74 23 0.0 0.0 0.00 0.17 0.17 62 1011.1
20180720015041 75 314 0.0 0.9 0.00 0.17 0.17 61 1011.1
20180720014541 75 328 0.0 0.9 0.00 0.17 0.17 60 1011.0
20180720014040 75 297 0.9 0.9 0.00 0.17 0.17 60 1011.0
20180720013540 76 323 0.9 4.3 0.00 0.17 0.17 60 1011.0
20180720013040 76 255 0.0 0.9 0.00 0.17 0.17 60 1011.0
20180720012540 77 267 0.0 2.6 0.00 0.17 0.17 60 1011.0
20180720012039 77 310 0.9 4.3 0.00 0.17 0.17 60 1011.0
20180720011539 78 295 1.7 2.6 0.00 0.17 0.17 61 1011.0
20180720011039 78 236 0.0 0.0 0.00 0.17 0.17 60 1010.9
20180720010537 78 247 0.0 1.7 0.00 0.17 0.17 60 1010.8
20180720010040 79 331 0.9 1.7 0.00 0.17 0.17 60 1010.8
20180720005541 79 215 0.0 0.0 0.00 0.17 0.17 61 1010.7
20180720005040 79 292 0.0 0.0 0.00 0.17 0.17 61 1010.7
20180720004538 79 243 0.0 0.0 0.00 0.17 0.17 61 1010.7
20180720004041 79 295 0.0 0.0 0.00 0.17 0.17 60 1010.8
20180720003541 80 294 0.9 0.9 0.00 0.17 0.17 59 1010.8
20180720003040 80 306 0.9 0.9 0.00 0.17 0.17 58 1010.7
20180720002540 80 334 0.9 2.6 0.00 0.17 0.17 59 1010.7
20180720002039 80 287 0.9 1.7 0.00 0.17 0.17 59 1010.8
20180720001539 80 288 0.0 0.0 0.00 0.17 0.17 58 1010.8
20180720001039 81 211 0.0 1.7 0.00 0.17 0.17 58 1010.8
20180720000540 81 227 0.0 1.7 0.00 0.17 0.17 58 1010.9
20180720000038 81 260 0.9 4.3 0.00 0.17 0.17 58 1010.8
20180719235538 81 237 0.0 0.9 0.00 0.17 0.17 57 1010.8
20180719235038 81 340 0.9 1.7 0.00 0.17 0.17 56 1010.8
20180719234538 81 255 0.0 1.7 0.00 0.17 0.17 57 1010.9
20180719234038 82 306 0.9 0.9 0.00 0.17 0.17 55 1010.8
20180719233538 82 258 0.9 1.7 0.00 0.17 0.17 55 1010.8
20180719233038 82 241 0.9 5.2 0.00 0.17 0.17 54 1010.8
20180719232538 83 291 2.6 5.2 0.00 0.17 0.17 53 1010.7
20180719232038 83 333 1.7 5.2 0.00 0.17 0.17 52 1010.7
20180719231538 83 244 0.9 0.9 0.00 0.17 0.17 54 1010.6
20180719231038 83 12 0.9 1.7 0.00 0.17 0.17 54 1010.6
20180719230538 83 299 1.7 6.1 0.00 0.17 0.17 54 1010.5
20180719230038 83 285 1.7 4.3 0.00 0.17 0.17 53 1010.5
20180719225538 83 265 1.7 1.7 0.00 0.17 0.17 53 1010.6
20180719225038 83 345 0.9 0.9 0.00 0.17 0.17 54 1010.6
20180719224538 83 253 0.9 2.6 0.00 0.17 0.17 54 1010.6
20180719224038 83 302 0.9 6.1 0.00 0.17 0.17 54 1010.6
20180719223538 83 287 1.7 4.3 0.00 0.17 0.17 52 1010.6
20180719223037 83 287 2.6 7.8 0.00 0.17 0.17 52 1010.6
20180719222537 83 256 1.7 2.6 0.00 0.17 0.17 52 1010.6
20180719222037 83 79 1.7 4.3 0.00 0.17 0.17 52 1010.6
20180719221537 83 268 0.9 6.1 0.00 0.17 0.17 53 1010.5
20180719221037 83 227 0.9 1.7 0.00 0.17 0.17 53 1010.5
20180719220537 83 274 2.6 10.4 0.00 0.17 0.17 52 1010.6
20180719220037 84 318 1.7 4.3 0.00 0.17 0.17 52 1010.5
20180719215537 84 269 1.7 4.3 0.00 0.17 0.17 51 1010.6
20180719215037 84 352 0.9 2.6 0.00 0.17 0.17 52 1010.6
20180719214537 84 291 0.9 1.7 0.00 0.17 0.17 54 1010.6
20180719214037 84 194 1.7 1.7 0.00 0.17 0.17 52 1010.6
20180719213537 84 221 1.7 6.1 0.00 0.17 0.17 54 1010.5
20180719213037 83 265 1.7 5.2 0.00 0.17 0.17 55 1010.5
20180719212537 83 267 2.6 7.8 0.00 0.17 0.17 54 1010.4
20180719212037 83 267 1.7 2.6 0.00 0.17 0.17 53 1010.4
20180719211537 83 193 0.9 0.9 0.00 0.17 0.17 52 1010.3
20180719211041 83 292 1.7 4.3 0.00 0.17 0.17 52 1010.3
20180719210541 83 321 2.6 5.2 0.00 0.17 0.17 51 1010.3
20180719210041 83 332 1.7 4.3 0.00 0.17 0.17 53 1010.3
20180719205541 83 270 2.6 4.3 0.00 0.17 0.17 56 1010.3
20180719205041 83 253 2.6 7.0 0.00 0.17 0.17 55 1010.3
20180719204541 83 240 1.7 4.3 0.00 0.17 0.17 54 1010.2
20180719204041 83 174 0.9 0.9 0.00 0.17 0.17 55 1010.2
20180719203540 83 241 1.7 10.4 0.00 0.17 0.17 56 1010.2
20180719203040 83 241 1.7 2.6 0.00 0.17 0.17 56 1010.2
20180719202540 83 271 2.6 5.2 0.00 0.17 0.17 54 1010.2
20180719202040 82 275 0.9 6.1 0.00 0.17 0.17 55 1010.2
20180719201540 83 254 2.6 6.1 0.00 0.17 0.17 53 1010.2
20180719201040 83 247 4.3 8.7 0.00 0.17 0.17 54 1010.2
20180719200540 83 220 0.9 5.2 0.00 0.17 0.17 56 1010.2
20180719200039 83 238 0.9 1.7 0.00 0.17 0.17 55 1010.2
20180719195539 82 313 1.7 4.3 0.00 0.17 0.17 53 1010.3
20180719195039 82 327 0.9 6.1 0.00 0.17 0.17 56 1010.3
20180719194539 82 346 0.9 0.0 0.00 0.17 0.17 57 1010.3
20180719194039 82 250 1.7 4.3 0.00 0.17 0.17 58 1010.4
20180719193539 82 208 2.6 5.2 0.00 0.17 0.17 57 1010.3
20180719193039 81 252 1.7 7.0 0.00 0.17 0.17 57 1010.4
20180719192539 81 305 1.7 5.2 0.00 0.17 0.17 56 1010.3
20180719192039 82 225 2.6 7.8 0.00 0.17 0.17 59 1010.3
20180719191539 82 227 5.2 12.2 0.00 0.17 0.17 58 1010.4
20180719191039 82 243 1.7 7.0 0.00 0.17 0.17 59 1010.3
20180719190539 82 199 0.9 1.7 0.00 0.17 0.17 58 1010.5
20180719190039 82 322 0.9 1.7 0.00 0.17 0.17 58 1010.5
20180719185539 81 206 1.7 2.6 0.00 0.17 0.17 60 1010.5
20180719185038 81 248 0.9 5.2 0.00 0.17 0.17 61 1010.5
20180719184538 81 54 1.7 2.6 0.00 0.17 0.17 62 1010.6
20180719184037 81 225 4.3 7.0 0.00 0.17 0.17 60 1010.6
20180719183537 81 241 0.9 4.3 0.00 0.17 0.17 60 1010.7
20180719183037 80 258 0.9 1.7 0.00 0.17 0.17 61 1010.7